Home > Weather > Recife > Past weeks

Flag for Brazil Past Weather in Recife, Pernambuco, Brazil — Yesterday and Last 2 Weeks

Now
79 °F

Passing clouds.


Feels Like: 81 °F
Forecast: N/A
Wind: 17 mph from South

Location: Recife Aeroporto

Current Time: Jul 26, 2016 at 7:06:22 PM

Latest Report: Jul 26, 2016 at 6:00 PM


Visibility: N/A

Pressure: 29.98 "Hg

Humidity: 74%

Dew Point: 70 °F

Location of RecifeLocation

Past Weather in Recife — Graph

°F

Recife Temperature Yesterday

Maximum temperature yesterday: 84 °F (at 2:00 PM)
Minimum temperature yesterday: 75 °F (at 7:00 PM)
Average temperature yesterday: 80 °F

High & Low Weather Summary for the Past Weeks

 TemperatureHumidityPressure
High84 °F (Jul 15, 10:00 AM)100% (Jul 19, 4:00 PM)30.07 "Hg (Jul 19, 4:00 PM)
Low70 °F (Jul 21, 6:00 AM)58% (Jul 21, 11:00 AM)29.89 "Hg (Jul 15, 3:00 PM)
Average78 °F79%29.99 "Hg
* Reported Jul 11 5:00 PM — Jul 26 5:00 PM, Recife, Weather by CustomWeather, © 2016

Note: Actual official high and low records may vary slightly from our data, if they occured in-between our weather recording intervals... More about our weather records

Advertising

Recife Weather History for the Previous 24 Hours

Scroll right to see more
 ConditionsComfort  
Time TempWeatherWind HumidityBarometerVisibility
5:00 PM
Tue, Jul 26
79 °FScattered clouds.15 mph74%29.98 "HgN/A
4:00 PM81 °FScattered clouds.16 mph70%29.98 "HgN/A
3:00 PM81 °FScattered clouds.16 mph74%29.95 "HgN/A
2:00 PM82 °FScattered clouds.17 mph70%29.98 "HgN/A
1:00 PM81 °FScattered clouds.17 mph74%29.98 "HgN/A
12:00 PM75 °FScattered showers. Partly sunny.17 mph94%29.98 "Hg5 mi
11:00 AM82 °FScattered clouds.17 mph70%30.01 "HgN/A
10:00 AM82 °FPassing clouds.16 mph66%30.04 "HgN/A
9:00 AM82 °FPassing clouds.17 mph62%30.01 "HgN/A
8:00 AM79 °FScattered clouds.14 mph79%30.07 "HgN/A
7:00 AM77 °FPassing clouds.7 mph79%30.01 "HgN/A
6:00 AM77 °FPassing clouds.12 mph74%29.98 "HgN/A
5:00 AM77 °FPassing clouds.14 mph74%29.98 "HgN/A
4:00 AM77 °FPassing clouds.15 mph74%29.98 "HgN/A
3:00 AM77 °FPassing clouds.16 mph74%29.95 "HgN/A
2:00 AM79 °FPassing clouds.16 mph70%29.98 "HgN/A
1:00 AM77 °FPassing clouds.14 mph79%29.98 "HgN/A
12:00 AM77 °FPassing clouds.15 mph74%29.98 "HgN/A
11:00 PM
Mon, Jul 25
79 °FPassing clouds.16 mph70%30.01 "HgN/A
10:00 PM77 °FPassing clouds.16 mph79%30.01 "HgN/A
9:00 PM77 °FPassing clouds.14 mph79%30.01 "HgN/A
8:00 PM77 °FPassing clouds.15 mph79%29.98 "HgN/A
7:00 PM75 °FMostly cloudy.6 mph83%29.98 "HgN/A
Weather by CustomWeather, © 2016

See weather overviewHow to use our weather pages